Вернуться в каталог

HULIANWANG DIGUI-148

АктивенСвязьLEO
NORAD 67524·PAYLOAD·🇨🇳 China

Запущен Jan 19, 2026 с Wenchang Space Launch Site

Loading…

Ближайшие Пролёты (ближайшие 24 часа)

TLE

СвежийSource: Space-Track

Эпоха: Sep 14, 2026, 01:54 UTC

1 67524U 26013C   26257.07926864 -.00000111  00000-0  28638-4 0  9995
2 67524  50.0102  36.9779 0000821  83.4788 276.6178 13.29330542 31872

Отслеживайте HULIANWANG DIGUI-148 в реальном времени с AllMySat

Download on the App Store